This demonstration page uses our WeatherBlox Daily Observations layout. Learn more.

Hourly Observations for June 16, 2019

Temp ( °F °C ) Dew Point ( °F °C ) Humidity (%) Winds ( mph kmh ) Pressure ( in mb ) Visibility ( mi km ) Precip ( " mm )
12:15 am 00:15 Clear 66 18.8 58 14.2 75 75 N 3 6 29.83 1010 10 16.09344 0 0
12:35 am 00:35 Clear 64 17.9 58 14.4 80 80 N 6 9 29.85 1011 10 16.09344 0 0
12:55 am 00:55 Clear 64 17.9 57 14.1 79 79 N 6 9 29.85 1011 10 16.09344 0 0
1:15 am 01:15 Clear 63 17.1 57 14 82 82 N 6 9 29.85 1011 10 16.09344 0 0
1:35 am 01:35 Clear 62 16.5 57 14.1 86 86 N 8 13 29.85 1011 10 16.09344 0 0
1:55 am 01:55 Clear 61 16.1 58 14.2 89 89 N 6 9 29.85 1011 10 16.09344 0 0
2:15 am 02:15 Clear 62 16.5 57 14.1 86 86 Calm 29.85 1011 10 16.09344 0 0
2:35 am 02:35 Clear 61 16.3 57 13.9 86 86 NNE 3 6 29.85 1011 10 16.09344 0 0
2:55 am 02:55 Partly Cloudy 60 15.3 57 14 92 92 Calm 29.85 1011 10 16.09344 0 0
3:15 am 03:15 Mostly Cloudy 61 16 58 14.4 90 90 Calm 29.88 1012 10 16.09344 0 0
3:35 am 03:35 Mostly Cloudy 60 15.6 58 14.5 93 93 Calm 29.88 1012 10 16.09344 0 0
3:55 am 03:55 Partly Cloudy 61 16.2 58 14.6 90 90 Calm 29.88 1012 10 16.09344 0 0
4:15 am 04:15 Partly Cloudy 61 16.1 58 14.2 89 89 Calm 29.88 1012 10 16.09344 0 0
4:35 am 04:35 Partly Cloudy 61 15.9 57 13.7 87 87 NW 3 6 29.88 1012 10 16.09344 0 0
4:55 am 04:55 Partly Cloudy 59 15.2 57 13.9 92 92 WNW 5 7 29.85 1011 10 16.09344 0 0
5:15 am 05:15 Clear 59 15 56 13.5 91 91 WNW 5 7 29.88 1012 10 16.09344 0 0
5:35 am 05:35 Clear 59 15.2 56 13.1 87 87 WNW 5 7 29.85 1011 10 16.09344 0 0
5:55 am 05:55 Clear 59 15 56 13.1 89 89 NW 5 7 29.91 1013 10 16.09344 0 0
6:15 am 06:15 Sunny 58 14.3 56 13.1 93 93 Calm 29.91 1013 10 16.09344 0 0
6:35 am 06:35 Sunny 58 14.4 56 13.1 92 92 Calm 29.91 1013 10 16.09344 0 0
6:55 am 06:55 Sunny 58 14.6 56 13.2 91 91 WNW 3 6 29.91 1013 10 16.09344 0 0
7:15 am 07:15 Sunny 59 15 56 13.6 91 91 Calm 29.94 1014 10 16.09344 0 0
7:35 am 07:35 Sunny 62 16.4 57 13.8 85 85 NW 3 6 29.91 1013 10 16.09344 0 0
7:55 am 07:55 Sunny 64 17.7 59 14.8 83 83 Calm 29.91 1013 10 16.09344 0 0
8:15 am 08:15 Sunny 66 18.7 58 14.4 76 76 NNW 3 6 29.91 1013 10 16.09344 0 0
8:35 am 08:35 Sunny 68 19.9 58 14.3 70 70 Calm 29.88 1012 10 16.09344 0 0
8:55 am 08:55 Sunny 70 20.9 58 14.6 67 67 NNW 3 6 29.88 1012 10 16.09344 0 0
9:15 am 09:15 Sunny 71 21.5 57 14.1 63 63 Calm 29.88 1012 10 16.09344 0 0
9:35 am 09:35 Sunny 73 22.5 57 14.1 59 59 Calm 29.88 1012 10 16.09344 0 0
9:55 am 09:55 Sunny 73 23 57 13.7 56 56 Calm 29.85 1011 10 16.09344 0 0
10:15 am 10:15 Partly Cloudy 74 23.6 55 12.7 51 51 NE 3 6 29.88 1012 10 16.09344 0 0
10:35 am 10:35 Partly Cloudy 75 24.1 55 12.6 49 49 E 5 7 29.88 1012 10 16.09344 0 0
10:55 am 10:55 Sunny 76 24.5 54 12.1 46 46 NE 5 7 29.85 1011 10 16.09344 0 0
11:15 am 11:15 Sunny 76 24.7 54 12.1 45 45 ESE 3 6 29.85 1011 10 16.09344 0 0
11:35 am 11:35 Sunny 77 25 53 11.4 43 43 E 3 6 29.85 1011 10 16.09344 0 0
11:55 am 11:55 Sunny 78 25.4 54 12.1 44 44 NE 8 13 29.85 1011 10 16.09344 0 0
12:15 pm 12:15 Partly Cloudy 78 25.3 53 11.5 42 42 Calm 29.85 1011 10 16.09344 0 0
12:30 pm 12:30 Mostly Cloudy 78 25.8 52 11.1 40 40 ESE 6 9 29.85 1011 10 16.09344 0 0
12:55 pm 12:55 Mostly Cloudy 79 26.2 53 11.7 40 40 ENE 3 6 29.85 1011 10 16.09344 0 0
1:15 pm 13:15 Partly Cloudy 79 26.3 53 11.5 40 40 E 3 6 29.85 1011 10 16.09344 0 0
1:35 pm 13:35 Partly Cloudy 79 26.3 52 11.2 39 39 ESE 5 7 29.85 1011 10 16.09344 0 0
1:55 pm 13:55 Partly Cloudy 80 26.5 53 11.5 39 39 Calm 29.83 1010 10 16.09344 0 0
2:15 pm 14:15 Partly Cloudy 81 27 53 11.6 38 38 NE 5 7 29.8 1009 10 16.09344 0 0
2:35 pm 14:35 Partly Cloudy 80 26.5 52 10.9 38 38 NE 3 6 29.8 1009 10 16.09344 0 0
2:55 pm 14:55 Partly Cloudy 80 26.9 51 10.6 36 36 NE 3 6 29.8 1009 10 16.09344 0 0
3:15 pm 15:15 Partly Cloudy 81 27.3 54 12 39 39 NNE 3 6 29.8 1009 10 16.09344 0 0
3:35 pm 15:35 Sunny 82 27.5 54 12 38 38 WNW 8 13 29.8 1009 10 16.09344 0 0
3:55 pm 15:55 Partly Cloudy 82 27.6 54 12.1 38 38 NNE 3 6 29.77 1008 10 16.09344 0 0
4:15 pm 16:15 Partly Cloudy 81 27.3 55 12.5 40 40 N 3 6 29.77 1008 10 16.09344 0 0
4:35 pm 16:35 Partly Cloudy 80 26.8 52 11.3 38 38 Calm 29.77 1008 10 16.09344 0 0
4:55 pm 16:55 Sunny 80 26.5 53 11.4 39 39 NNE 8 13 29.77 1008 10 16.09344 0 0
5:15 pm 17:15 Sunny 81 27.4 52 11 36 36 ENE 6 9 29.77 1008 10 16.09344 0 0
5:35 pm 17:35 Sunny 81 27.2 53 11.7 38 38 N 6 9 29.77 1008 10 16.09344 0 0
5:55 pm 17:55 Sunny 80 26.9 53 11.4 38 38 Calm 29.77 1008 10 16.09344 0 0
6:15 pm 18:15 Sunny 78 25.8 52 11.3 40 40 NE 8 13 29.8 1009 10 16.09344 0 0
6:35 pm 18:35 Sunny 78 25.8 54 12.3 43 43 NE 7 11 29.8 1009 10 16.09344 0 0
6:55 pm 18:55 Sunny 78 25.8 53 11.9 42 42 NE 6 9 29.8 1009 10 16.09344 0 0
7:15 pm 19:15 Mostly Cloudy 77 25.2 55 12.6 46 46 NE 7 11 29.83 1010 10 16.09344 0 0
7:35 pm 19:35 Partly Cloudy 77 25.1 56 13.4 48 48 NE 7 11 29.83 1010 10 16.09344 0 0
7:55 pm 19:55 Partly Cloudy 77 24.9 56 13.1 48 48 NE 5 7 29.8 1009 10 16.09344 0 0
8:15 pm 20:15 Mostly Cloudy 75 24 57 13.8 53 53 NE 6 9 29.8 1009 10 16.09344 0 0
8:35 pm 20:35 Mostly Cloudy 75 23.8 58 14.2 55 55 Calm 29.83 1010 10 16.09344 0 0
8:55 pm 20:55 Partly Cloudy 74 23.3 58 14.6 58 58 ENE 5 7 29.83 1010 10 16.09344 0 0
9:15 pm 21:15 Clear 73 22.5 59 14.8 62 62 ENE 8 13 29.8 1009 10 16.09344 0 0
9:35 pm 21:35 Clear 72 22.3 59 14.9 63 63 Calm 29.85 1011 10 16.09344 0 0
9:55 pm 21:55 Mostly Cloudy 73 22.8 58 14.3 59 59 Calm 29.83 1010 10 16.09344 0 0
10:15 pm 22:15 Partly Cloudy 74 23.3 57 14 56 56 Calm 29.83 1010 10 16.09344 0 0
10:35 pm 22:35 Mostly Cloudy 73 22.5 58 14.6 61 61 Calm 29.88 1012 10 16.09344 0 0
10:55 pm 22:55 Cloudy 71 21.5 60 15.4 68 68 Calm 29.88 1012 10 16.09344 0 0
11:15 pm 23:15 Cloudy 71 21.6 60 15.4 68 68 Calm 29.88 1012 10 16.09344 0 0
11:35 pm 23:35 Cloudy 71 21.7 60 15.5 68 68 Calm 29.88 1012 10 16.09344 0 0
11:55 pm 23:55 Cloudy 72 22 59 15.1 65 65 Calm 29.88 1012 10 16.09344 0 0

Powered by AerisWeather